Regional Weather Roundup
Issued by NWS

Home | Current Version | Previous Version | Text Only | Print | Product List | Glossary Off
Versions: 1 2 3 4 5 6 7 8 9 10 11 12 13 14 15 16 17 18 19 20 21 22 23 24 25 26 27 28 29 30 31 32 33 34 35 36 37 38 39 40 41 42 43 44 45 46 47 48 49 50

000
ASUS43 KFSD 301802
RWRSD

WEATHER ROUNDUP FOR SOUTH DAKOTA
NATIONAL WEATHER SERVICE SIOUX FALLS SD
100 PM CDT WED JUL 30 2014

NOTE: "FAIR" INDICATES FEW OR NO CLOUDS BELOW 12,000 FEET WITH NO
SIGNIFICANT WEATHER AND/OR OBSTRUCTIONS TO VISIBILITY.


SDZ001>005-009-010-012>017-301900-
NORTHWEST AND NORTH CENTRAL SOUTH DAKOTA

CITY           SKY/WX    TMP DP  RH WIND       PRES   REMARKS
BUFFALO          N/A     78  49  35 N12       30.14F
FAITH            N/A     78  56  46 NW9       30.15F
MOBRIDGE       MOSUNNY   80  56  43 SE6       30.11F
$$

SDZ012>016-024>037-041>051-057-063-072>074-301900-
SOUTHWEST AND SOUTH CENTRAL SOUTH DAKOTA

CITY           SKY/WX    TMP DP  RH WIND       PRES   REMARKS
RAPID CTY ARPT MOSUNNY   80  55  42 VRB5      30.19F
PIERRE         SUNNY     81  53  37 VRB5      30.12F
CUSTER         PTSUNNY   74  43  32 E3        30.31F
ELLSWORTH AFB  MOSUNNY   80  52  37 N12       30.19F
PHILIP         MOSUNNY   84  51  31 SW6       30.13F
PINE RIDGE     PTSUNNY   77  57  50 VRB3      30.22F
WINNER         FAIR      84  49  29 N7        30.15F
$$

SDZ004>011-016>023-039-040-301900-
NORTHEAST SOUTH DAKOTA

CITY           SKY/WX    TMP DP  RH WIND       PRES   REMARKS
ABERDEEN       MOSUNNY   78  54  43 E5        30.13F
WATERTOWN      PTSUNNY   74  53  48 N8        30.15F
SISSETON         N/A     76  54  46 N7        30.12F
$$

SDZ017-020-022-023-036>040-048>070-301900-
SOUTHEAST SOUTH DAKOTA

CITY           SKY/WX    TMP DP  RH WIND       PRES   REMARKS
SIOUX FALLS    FAIR      77  56  48 E7        30.15F
HURON          SUNNY     78  53  41 NW3       30.14F
CHAMBERLAIN    PTSUNNY   80  55  41 W3        30.14F
MITCHELL       SUNNY     78  54  43 E8        30.15F
YANKTON        FAIR      75  52  43 CALM      30.16S
$$

ABBREVIATIONS USED IN REMARKS
   TC - TEMPERATURE IN CELSIUS
  WCI - WIND CHILL INDEX
   HX - HEAT INDEX
  VSB - VISIBILITY



USA.gov is the U.S. government's official web portal to all federal, state and local government web resources and services.